Location: Ferintosh
(52.7647°N, 112.9692°W)
Time: 14:29:08
(UTC+00:00)

Transit 2A - Pass Details

Date: 19 May 2024
Orbit: 592 x 959 km, 66.7° (Epoch: 23 June)

Event Time Altitude Azimuth Distance (km) Brightness Sun altitude
Rises 09:57:40 0° 276° (W) 3,058 8.8 -10.4°
Reaches altitude 10° 10:00:23 10° 292° (WNW) 2,206 8.2 -10.2°
Maximum altitude 10:04:19 22° 343° (NNW) 1,620 8.2 -9.8°
Drops below altitude 10° 10:08:34 10° 34° (NNE) 2,405 10.2 -9.5°
Sets 10:11:41 0° 49° (NE) 3,411 11.4 -9.2°
